DLH279 EDDF-EDDP

Flight info

Callsign DLH279
Flight time 0h 43m
Altitude 23000
Route SULUS7S/18 SULUS Z12 LASGA/N0411F220 T953 VOCIM/N0404F210 T954 GOXLI GOXLI1V
Aircraft A320/M-SDE3FGHIRWY/LB1

Departure

Time 2026-04-16 21:23
Airport Frankfurt Main Airport (EDDF)

Arrival

Time 2026-04-16 22:07
Airport Leipzig/Halle Airport (EDDP)
Time Latitude Longitude Altitude Speed Heading
2026-04-16 20:49 50.04649 8.57254 356 ft 0 kts 298°
2026-04-16 21:10 50.04648 8.57256 356 ft 2 kts 298°
2026-04-16 21:10 50.04636 8.57291 364 ft 4 kts 295°
2026-04-16 21:10 50.04624 8.57328 358 ft 4 kts 297°
2026-04-16 21:10 50.04612 8.57366 362 ft 4 kts 297°
2026-04-16 21:11 50.04600 8.57403 361 ft 4 kts 287°
2026-04-16 21:11 50.04598 8.57441 363 ft 3 kts 249°
2026-04-16 21:11 50.04608 8.57480 363 ft 4 kts 250°
2026-04-16 21:11 50.04617 8.57519 361 ft 4 kts 250°
2026-04-16 21:12 50.04626 8.57559 359 ft 4 kts 251°
2026-04-16 21:12 50.04632 8.57587 361 ft 0 kts 251°
2026-04-16 21:14 50.04628 8.57571 361 ft 7 kts 251°
2026-04-16 21:14 50.04608 8.57483 363 ft 8 kts 249°
2026-04-16 21:14 50.04581 8.57374 357 ft 14 kts 249°
2026-04-16 21:15 50.04546 8.57231 364 ft 14 kts 249°
2026-04-16 21:15 50.04511 8.57083 363 ft 15 kts 250°
2026-04-16 21:15 50.04476 8.56931 362 ft 14 kts 250°
2026-04-16 21:15 50.04442 8.56787 363 ft 15 kts 250°
2026-04-16 21:16 50.04404 8.56629 359 ft 17 kts 250°
2026-04-16 21:16 50.04361 8.56449 362 ft 19 kts 250°
2026-04-16 21:16 50.04312 8.56244 355 ft 21 kts 250°
2026-04-16 21:16 50.04257 8.56018 359 ft 23 kts 250°
2026-04-16 21:17 50.04199 8.55772 353 ft 26 kts 250°
2026-04-16 21:17 50.04136 8.55511 358 ft 26 kts 249°
2026-04-16 21:17 50.04075 8.55257 359 ft 24 kts 250°
2026-04-16 21:17 50.04020 8.55024 359 ft 24 kts 250°
2026-04-16 21:18 50.03960 8.54772 357 ft 26 kts 249°
2026-04-16 21:18 50.03893 8.54493 355 ft 28 kts 250°
2026-04-16 21:18 50.03817 8.54276 351 ft 22 kts 234°
2026-04-16 21:18 50.03759 8.54051 348 ft 23 kts 246°
2026-04-16 21:19 50.03709 8.53844 349 ft 18 kts 250°
2026-04-16 21:19 50.03672 8.53691 348 ft 8 kts 249°
2026-04-16 21:19 50.03653 8.53614 341 ft 7 kts 248°
2026-04-16 21:19 50.03620 8.53488 338 ft 18 kts 249°
2026-04-16 21:20 50.03575 8.53296 335 ft 20 kts 250°
2026-04-16 21:20 50.03522 8.53080 338 ft 23 kts 249°
2026-04-16 21:20 50.03468 8.52861 333 ft 16 kts 245°
2026-04-16 21:20 50.03439 8.52758 335 ft 0 kts 248°
2026-04-16 21:22 50.03433 8.52735 333 ft 10 kts 248°
2026-04-16 21:22 50.03367 8.52601 334 ft 18 kts 204°
2026-04-16 21:22 50.03224 8.52596 335 ft 33 kts 179°
2026-04-16 21:23 50.02670 8.52602 332 ft 123 kts 179°
2026-04-16 21:23 50.01582 8.52625 484 ft 177 kts 179°
2026-04-16 21:23 50.00312 8.52684 1252 ft 188 kts 178°
2026-04-16 21:23 49.98918 8.52696 1917 ft 211 kts 179°
2026-04-16 21:24 49.97405 8.52858 2769 ft 224 kts 162°
2026-04-16 21:24 49.96070 8.54206 3641 ft 246 kts 131°
2026-04-16 21:24 49.95022 8.56573 3931 ft 293 kts 122°
2026-04-16 21:24 49.93924 8.59555 4001 ft 342 kts 119°
2026-04-16 21:25 49.92746 8.63005 4016 ft 381 kts 118°
2026-04-16 21:25 49.91530 8.66622 5306 ft 371 kts 118°
2026-04-16 21:25 49.90370 8.70071 6584 ft 345 kts 118°
2026-04-16 21:25 49.89275 8.73238 6601 ft 322 kts 120°
2026-04-16 21:26 49.88223 8.76186 6604 ft 302 kts 120°
2026-04-16 21:26 49.87223 8.78940 6605 ft 285 kts 120°
2026-04-16 21:26 49.86272 8.81545 6492 ft 278 kts 120°
2026-04-16 21:26 49.85323 8.84143 6105 ft 276 kts 120°
2026-04-16 21:27 49.84383 8.86720 5709 ft 273 kts 120°
2026-04-16 21:27 49.83455 8.89271 5454 ft 268 kts 120°
2026-04-16 21:27 49.82533 8.91813 5454 ft 272 kts 120°
2026-04-16 21:27 49.81898 8.93560 5462 ft 273 kts 120°
2026-04-16 21:28 49.81395 8.94942 5444 ft 273 kts 120°
2026-04-16 21:28 49.80463 8.97499 5448 ft 273 kts 120°
2026-04-16 21:28 49.79529 9.00056 5449 ft 273 kts 120°
2026-04-16 21:28 49.78596 9.02610 5447 ft 273 kts 120°
2026-04-16 21:29 49.77659 9.05173 5447 ft 273 kts 120°
2026-04-16 21:29 49.76756 9.07713 5458 ft 273 kts 116°
2026-04-16 21:29 49.76037 9.10434 5458 ft 273 kts 108°
2026-04-16 21:29 49.75571 9.13222 6111 ft 268 kts 104°
2026-04-16 21:30 49.75128 9.16060 6950 ft 274 kts 104°
2026-04-16 21:30 49.74665 9.18955 7778 ft 280 kts 104°
2026-04-16 21:30 49.74189 9.21903 8614 ft 285 kts 104°
2026-04-16 21:30 49.73701 9.24895 9501 ft 289 kts 104°
2026-04-16 21:31 49.73205 9.27926 10360 ft 292 kts 104°
2026-04-16 21:31 49.72710 9.30953 11169 ft 295 kts 104°
2026-04-16 21:31 49.72205 9.34043 11988 ft 297 kts 104°
2026-04-16 21:31 49.71697 9.37143 12841 ft 298 kts 104°
2026-04-16 21:32 49.71188 9.40250 13717 ft 298 kts 103°
2026-04-16 21:32 49.70681 9.43344 14543 ft 296 kts 103°
2026-04-16 21:32 49.70174 9.46423 15341 ft 294 kts 103°
2026-04-16 21:32 49.69672 9.49467 16159 ft 290 kts 103°
2026-04-16 21:33 49.69178 9.52466 17010 ft 286 kts 103°
2026-04-16 21:33 49.68699 9.55373 17864 ft 280 kts 103°
2026-04-16 21:33 49.68222 9.58266 18585 ft 280 kts 103°
2026-04-16 21:33 49.67790 9.61216 19094 ft 283 kts 97°
2026-04-16 21:34 49.67546 9.64238 19622 ft 284 kts 91°
2026-04-16 21:34 49.67505 9.67302 20157 ft 286 kts 84°
2026-04-16 21:34 49.67665 9.70365 20695 ft 287 kts 78°
2026-04-16 21:34 49.68022 9.73403 21227 ft 288 kts 72°
2026-04-16 21:35 49.68539 9.76394 21760 ft 290 kts 70°
2026-04-16 21:35 49.69072 9.79410 22292 ft 292 kts 70°
2026-04-16 21:35 49.69606 9.82456 22818 ft 295 kts 70°
2026-04-16 21:35 49.70150 9.85546 23183 ft 305 kts 70°
2026-04-16 21:36 49.70722 9.88764 23244 ft 325 kts 70°
2026-04-16 21:36 49.71427 9.92184 23247 ft 344 kts 64°
2026-04-16 21:36 49.72437 9.95636 23243 ft 361 kts 57°
2026-04-16 21:36 49.73775 9.99023 23248 ft 377 kts 50°
2026-04-16 21:37 49.75340 10.02382 23245 ft 394 kts 50°
2026-04-16 21:37 49.76980 10.05908 23252 ft 411 kts 50°
2026-04-16 21:37 49.78678 10.09574 23244 ft 427 kts 50°
2026-04-16 21:37 49.80434 10.13378 23244 ft 441 kts 51°
2026-04-16 21:38 49.82235 10.17297 23247 ft 452 kts 51°
2026-04-16 21:38 49.84066 10.21293 23247 ft 456 kts 51°
2026-04-16 21:38 49.85904 10.25314 23247 ft 457 kts 51°
2026-04-16 21:38 49.87743 10.29336 23250 ft 458 kts 51°
2026-04-16 21:39 49.89561 10.33313 23246 ft 458 kts 51°
2026-04-16 21:39 49.91406 10.37342 23247 ft 458 kts 51°
2026-04-16 21:39 49.93245 10.41371 23247 ft 458 kts 51°
2026-04-16 21:39 49.95082 10.45410 23261 ft 458 kts 51°
2026-04-16 21:40 49.96919 10.49448 23247 ft 458 kts 51°
2026-04-16 21:40 49.98758 10.53486 23256 ft 458 kts 51°
2026-04-16 21:40 50.00596 10.57533 23248 ft 458 kts 51°
2026-04-16 21:40 50.02427 10.61584 23250 ft 458 kts 51°
2026-04-16 21:41 50.04258 10.65648 23253 ft 458 kts 51°
2026-04-16 21:41 50.06068 10.69663 23252 ft 458 kts 51°
2026-04-16 21:41 50.07959 10.73640 23251 ft 455 kts 45°
2026-04-16 21:41 50.10064 10.77317 23253 ft 454 kts 44°
2026-04-16 21:42 50.12183 10.80984 23255 ft 454 kts 44°
2026-04-16 21:42 50.14296 10.84652 23273 ft 455 kts 44°
2026-04-16 21:42 50.16407 10.88333 23254 ft 454 kts 44°
2026-04-16 21:42 50.18516 10.92013 23258 ft 454 kts 44°
2026-04-16 21:43 50.19914 10.94449 23258 ft 454 kts 44°
2026-04-16 21:43 50.22020 10.98121 23258 ft 454 kts 44°
2026-04-16 21:43 50.24809 11.03000 23258 ft 454 kts 44°
2026-04-16 21:43 50.26913 11.06691 23261 ft 454 kts 44°
2026-04-16 21:44 50.29014 11.10391 23260 ft 454 kts 44°
2026-04-16 21:44 50.30431 11.12885 23268 ft 454 kts 44°
2026-04-16 21:44 50.32641 11.16263 23259 ft 447 kts 34°
2026-04-16 21:44 50.35201 11.18966 23269 ft 441 kts 24°
2026-04-16 21:45 50.37992 11.20869 23270 ft 434 kts 13°
2026-04-16 21:45 50.41866 11.22138 23264 ft 427 kts
2026-04-16 21:45 50.43864 11.22233 23266 ft 423 kts 354°
2026-04-16 21:45 50.46805 11.22009 23262 ft 423 kts 353°
2026-04-16 21:46 50.49744 11.21783 23263 ft 423 kts 354°
2026-04-16 21:46 50.52651 11.21569 23260 ft 423 kts 354°
2026-04-16 21:46 50.55591 11.21355 23261 ft 423 kts 354°
2026-04-16 21:46 50.58540 11.21140 23267 ft 424 kts 354°
2026-04-16 21:47 50.61502 11.21238 23263 ft 428 kts
2026-04-16 21:47 50.64455 11.22052 23260 ft 433 kts 11°
2026-04-16 21:47 50.67323 11.23594 23254 ft 438 kts 19°
2026-04-16 21:47 50.70096 11.25608 23261 ft 439 kts 20°
2026-04-16 21:48 50.72874 11.27636 23259 ft 439 kts 20°
2026-04-16 21:48 50.75608 11.29629 23268 ft 439 kts 20°
2026-04-16 21:48 50.78379 11.31652 23262 ft 438 kts 20°
2026-04-16 21:48 50.81145 11.33674 23257 ft 437 kts 20°
2026-04-16 21:49 50.83914 11.35697 23260 ft 437 kts 20°
2026-04-16 21:49 50.86674 11.37714 23253 ft 437 kts 20°
2026-04-16 21:49 50.89431 11.39735 23249 ft 437 kts 20°
2026-04-16 21:49 50.92187 11.41762 23251 ft 437 kts 20°
2026-04-16 21:50 50.94944 11.43796 23255 ft 437 kts 20°
2026-04-16 21:50 50.97700 11.45832 23253 ft 437 kts 20°
2026-04-16 21:50 51.00461 11.47872 23257 ft 437 kts 20°
2026-04-16 21:50 51.03218 11.49913 23259 ft 437 kts 20°
2026-04-16 21:51 51.05966 11.51963 23243 ft 437 kts 22°
2026-04-16 21:51 51.08579 11.54503 23253 ft 444 kts 31°
2026-04-16 21:51 51.10927 11.57737 23250 ft 450 kts 41°
2026-04-16 21:51 51.12908 11.61548 23251 ft 456 kts 51°
2026-04-16 21:52 51.14520 11.65934 23176 ft 459 kts 58°
2026-04-16 21:52 51.15984 11.70411 22469 ft 454 kts 58°
2026-04-16 21:52 51.17434 11.74853 21752 ft 449 kts 58°
2026-04-16 21:52 51.18865 11.79243 21054 ft 444 kts 58°
2026-04-16 21:53 51.20280 11.83597 20409 ft 440 kts 58°
2026-04-16 21:53 51.21673 11.87930 19776 ft 436 kts 61°
2026-04-16 21:53 51.22736 11.92459 19151 ft 437 kts 71°
2026-04-16 21:53 51.23323 11.97206 18547 ft 437 kts 81°
2026-04-16 21:54 51.23567 12.02024 17828 ft 434 kts 83°
2026-04-16 21:54 51.23795 12.06799 17169 ft 429 kts 83°
2026-04-16 21:54 51.24022 12.11524 16548 ft 425 kts 83°
2026-04-16 21:54 51.24247 12.16211 15837 ft 422 kts 83°
2026-04-16 21:55 51.24471 12.20933 14832 ft 428 kts 84°
2026-04-16 21:55 51.24693 12.25657 14121 ft 426 kts 84°
2026-04-16 21:55 51.24914 12.30348 13395 ft 421 kts 84°
2026-04-16 21:55 51.25171 12.34976 12667 ft 416 kts 80°
2026-04-16 21:56 51.25836 12.39426 11954 ft 409 kts 70°
2026-04-16 21:56 51.26909 12.43602 11241 ft 404 kts 65°
2026-04-16 21:56 51.28017 12.47679 10542 ft 401 kts 65°
2026-04-16 21:56 51.29115 12.51752 9823 ft 397 kts 65°
2026-04-16 21:57 51.30195 12.55770 9343 ft 386 kts 65°
2026-04-16 21:57 51.31072 12.59702 9206 ft 368 kts 75°
2026-04-16 21:57 51.31415 12.63654 9078 ft 351 kts 86°
2026-04-16 21:57 51.31566 12.67467 8937 ft 335 kts 85°
2026-04-16 21:58 51.31721 12.71113 8802 ft 322 kts 85°
2026-04-16 21:58 51.31938 12.74600 8667 ft 308 kts 75°
2026-04-16 21:58 51.32797 12.77629 8250 ft 301 kts 50°
2026-04-16 21:58 51.34417 12.79752 7426 ft 307 kts 22°
2026-04-16 21:59 51.36499 12.80486 6559 ft 312 kts 357°
2026-04-16 21:59 51.38702 12.80289 5651 ft 321 kts 354°
2026-04-16 21:59 51.40879 12.79820 5332 ft 308 kts 340°
2026-04-16 21:59 51.42592 12.78044 5095 ft 292 kts 309°
2026-04-16 22:00 51.43460 12.75243 4987 ft 275 kts 280°
2026-04-16 22:00 51.43483 12.72293 4994 ft 256 kts 267°
2026-04-16 22:00 51.43369 12.69545 4998 ft 238 kts 267°
2026-04-16 22:00 51.43256 12.66990 5000 ft 221 kts 267°
2026-04-16 22:01 51.43141 12.64579 5003 ft 214 kts 266°
2026-04-16 22:01 51.43032 12.62258 4916 ft 205 kts 267°
2026-04-16 22:01 51.42932 12.59986 4686 ft 204 kts 267°
2026-04-16 22:01 51.42834 12.57720 4421 ft 204 kts 267°
2026-04-16 22:02 51.42736 12.55450 4156 ft 204 kts 267°
2026-04-16 22:02 51.42638 12.53221 3892 ft 197 kts 267°
2026-04-16 22:02 51.42544 12.51069 3634 ft 189 kts 267°
2026-04-16 22:02 51.42453 12.49020 3376 ft 180 kts 268°
2026-04-16 22:03 51.42367 12.47075 3155 ft 167 kts 268°
2026-04-16 22:03 51.42288 12.45296 2917 ft 152 kts 268°
2026-04-16 22:03 51.42216 12.43665 2720 ft 143 kts 269°
2026-04-16 22:03 51.42146 12.42102 2533 ft 139 kts 269°
2026-04-16 22:04 51.42078 12.40568 2348 ft 137 kts 269°
2026-04-16 22:04 51.42010 12.39046 2165 ft 137 kts 269°
2026-04-16 22:04 51.41943 12.37553 1984 ft 136 kts 269°
2026-04-16 22:04 51.41875 12.36041 1798 ft 136 kts 269°
2026-04-16 22:05 51.41807 12.34532 1613 ft 136 kts 269°
2026-04-16 22:05 51.41739 12.33027 1428 ft 136 kts 268°
2026-04-16 22:05 51.41670 12.31521 1246 ft 135 kts 267°
2026-04-16 22:05 51.41601 12.30015 1060 ft 135 kts 266°
2026-04-16 22:06 51.41533 12.28512 879 ft 135 kts 265°
2026-04-16 22:06 51.41395 12.25524 520 ft 134 kts 265°
2026-04-16 22:06 51.41332 12.24138 475 ft 103 kts 265°
2026-04-16 22:07 51.41290 12.23345 474 ft 56 kts 266°
2026-04-16 22:07 51.41265 12.22774 473 ft 48 kts 266°
2026-04-16 22:07 51.41241 12.22275 469 ft 42 kts 265°
2026-04-16 22:07 51.41197 12.21859 468 ft 37 kts 246°
2026-04-16 22:08 51.41068 12.21675 467 ft 14 kts 155°
2026-04-16 22:08 51.41052 12.21736 468 ft 4 kts 90°
2026-04-16 22:08 51.41052 12.21769 469 ft 2 kts 90°
2026-04-16 22:08 51.41052 12.21790 469 ft 1 kts 90°
2026-04-16 22:09 51.41052 12.21805 469 ft 1 kts 90°
2026-04-16 22:09 51.41052 12.21818 468 ft 1 kts 90°
2026-04-16 22:09 51.41052 12.21831 468 ft 1 kts 90°
2026-04-16 22:09 51.41052 12.21852 468 ft 2 kts 90°
2026-04-16 22:10 51.41052 12.21882 468 ft 3 kts 89°
2026-04-16 22:10 51.41055 12.21917 468 ft 4 kts 82°
2026-04-16 22:10 51.41063 12.22006 468 ft 11 kts 84°
2026-04-16 22:10 51.41069 12.22124 468 ft 10 kts 85°
2026-04-16 22:11 51.41074 12.22225 468 ft 9 kts 85°
2026-04-16 22:11 51.41079 12.22324 468 ft 13 kts 85°
2026-04-16 22:11 51.41083 12.22426 468 ft 6 kts 85°
2026-04-16 22:11 51.41087 12.22497 469 ft 10 kts 86°
2026-04-16 22:12 51.41093 12.22635 470 ft 17 kts 85°
2026-04-16 22:12 51.41104 12.22856 473 ft 25 kts 85°
2026-04-16 22:12 51.41114 12.23082 477 ft 20 kts 86°
2026-04-16 22:12 51.41112 12.23247 473 ft 12 kts 116°
2026-04-16 22:13 51.41055 12.23312 475 ft 11 kts 140°
2026-04-16 22:13 51.41042 12.23452 478 ft 13 kts 82°
2026-04-16 22:13 51.41045 12.23608 472 ft 13 kts 109°
2026-04-16 22:13 51.40966 12.23660 476 ft 15 kts 176°
2026-04-16 22:14 51.40897 12.23685 470 ft 5 kts 106°
2026-04-16 22:14 51.40905 12.23704 472 ft 1 kts 19°
2026-04-16 22:14 51.40908 12.23696 468 ft 1 kts 313°
2026-04-16 22:14 51.40902 12.23681 465 ft 3 kts 235°
2026-04-16 22:15 51.40854 12.23660 469 ft 11 kts 218°
2026-04-16 22:15 51.40840 12.23548 469 ft 9 kts 266°
2026-04-16 22:15 51.40840 12.23540 469 ft 0 kts 266°